Date String (YYYY-MM-DD hh:mm:ss) UTC,Instrument flags,Ambient pressure (hPa),Sample flow (lpm),Bypass flow (lpm),Sample temperature (°C),Ambient temperature (°C),ASC tube jacket temperature (°C),LED temperature (°C),Box temperature (°C),Sample RH (%),Span deviation,Mass concentration (μg/m³),Mass concentration (μg/m³),Mass concentration (μg/m³)
DateTimeUTC,F1_M11,P_M11,Q1_M11,Q2_M11,T1_M11,T2_M11,T3_M11,T4_M11,T5_M11,U1_M11,ZSPAN_M11,X0_M11,X2_M11,X1_M11
2022-10-08 07:00:00,,0836.5,5.00,0.00,26.1,24.6,00.0,34.9,28.0,23.0,-001.2,0015.75,0010.91,0010.15
2022-10-08 07:01:00,,0836.5,4.99,0.00,26.1,24.6,00.0,34.9,28.0,23.0,-001.2,0015.73,0010.91,0010.18
2022-10-08 07:02:00,,0836.5,5.00,0.00,26.1,24.6,00.0,34.9,28.0,23.0,-001.4,0015.75,0010.87,0010.17
2022-10-08 07:03:00,,0836.4,5.00,0.00,26.1,24.6,00.0,34.9,28.0,23.0,-001.4,0015.75,0010.81,0010.14
2022-10-08 07:04:00,,0836.5,5.00,0.00,26.1,24.6,00.0,34.9,28.0,22.9,-001.3,0016.05,0010.75,0010.08
2022-10-08 07:05:00,,0836.5,4.99,0.00,26.1,24.6,00.0,34.9,28.0,22.9,-001.2,0016.08,0010.67,0010.04
2022-10-08 07:06:00,,0836.5,5.01,0.00,26.1,24.5,00.0,34.9,27.9,22.9,-000.9,0015.76,0010.60,0009.99
2022-10-08 07:07:00,,0836.5,5.00,0.00,26.1,24.5,00.0,34.8,28.0,22.9,-000.9,0015.59,0010.52,0009.93
2022-10-08 07:08:00,,0836.5,4.99,0.00,26.1,24.5,00.0,34.8,27.9,22.8,-000.7,0015.44,0010.45,0009.89
2022-10-08 07:09:00,,0836.5,5.00,0.00,26.1,24.5,00.0,34.8,27.9,22.8,-001.0,0015.44,0010.40,0009.85
2022-10-08 07:10:00,,0836.5,5.01,0.00,26.1,24.5,00.0,34.8,28.0,22.8,-001.0,0015.36,0010.34,0009.80
2022-10-08 07:11:00,,0836.5,5.00,0.00,26.1,24.5,00.0,34.8,28.0,22.8,-001.1,0015.18,0010.22,0009.72
2022-10-08 07:12:00,,0836.5,4.99,0.00,26.1,24.5,00.0,34.8,27.9,22.8,-001.1,0014.96,0010.11,0009.63
2022-10-08 07:13:00,,0836.5,5.00,0.00,26.0,24.5,00.0,34.8,27.9,22.8,-001.2,0014.72,0010.00,0009.54
2022-10-08 07:14:00,,0836.5,5.01,0.00,26.0,24.5,00.0,34.8,27.9,22.9,-001.2,0014.57,0009.92,0009.48
2022-10-08 07:15:00,,0836.5,5.00,0.00,26.0,24.5,00.0,34.8,27.9,22.9,-001.0,0014.45,0009.85,0009.42
2022-10-08 07:16:00,,0836.5,5.00,0.00,26.0,24.5,00.0,34.8,27.9,22.9,-000.8,0014.21,0009.84,0009.40
2022-10-08 07:17:00,,0836.5,5.01,0.00,26.0,24.5,00.0,34.8,27.9,22.9,-000.9,0014.19,0009.82,0009.38
2022-10-08 07:18:00,,0836.5,5.00,0.00,26.0,24.5,00.0,34.8,27.9,22.9,-001.1,0014.16,0009.83,0009.39
2022-10-08 07:19:00,,0836.5,5.00,0.00,26.0,24.5,00.0,34.8,27.9,22.9,-001.2,0013.99,0009.79,0009.37
2022-10-08 07:20:00,,0836.5,4.99,0.00,26.0,24.5,00.0,34.8,27.9,22.9,-001.1,0013.81,0009.77,0009.36
2022-10-08 07:21:00,,0836.5,4.99,0.00,26.0,24.5,00.0,34.8,27.9,22.9,-001.0,0013.68,0009.77,0009.35
2022-10-08 07:22:00,,0836.5,5.01,0.00,26.0,24.5,00.0,34.8,27.9,22.9,-001.0,0013.60,0009.75,0009.33
2022-10-08 07:23:00,,0836.5,4.99,0.00,26.0,24.5,00.0,34.8,27.9,22.9,-001.1,0013.59,0009.73,0009.32
2022-10-08 07:24:00,,0836.5,5.00,0.00,26.0,24.5,00.0,34.8,27.9,22.9,-001.0,0013.63,0009.74,0009.33
2022-10-08 07:25:00,,0836.5,5.01,0.00,26.0,24.5,00.0,34.8,27.9,22.9,-001.0,0013.70,0009.77,0009.34
2022-10-08 07:26:00,,0836.5,5.00,0.00,26.0,24.5,00.0,34.8,27.9,22.9,-001.2,0013.44,0009.81,0009.36
2022-10-08 07:27:00,,0836.5,4.99,0.00,26.0,24.5,00.0,34.8,27.9,22.9,-001.5,0013.37,0009.81,0009.37
2022-10-08 07:28:00,,0836.5,5.01,0.00,26.0,24.5,00.0,34.8,27.9,22.9,-001.6,0013.38,0009.81,0009.38
2022-10-08 07:29:00,,0836.5,4.99,0.00,26.0,24.5,00.0,34.8,27.9,22.9,-001.6,0013.39,0009.81,0009.40
2022-10-08 07:30:00,,0836.5,4.99,0.00,26.0,24.5,00.0,34.8,27.9,22.9,-001.9,0013.49,0009.81,0009.40
2022-10-08 07:31:00,,0836.5,5.01,0.00,26.0,24.4,00.0,34.8,27.9,22.9,-001.8,0013.54,0009.84,0009.42
2022-10-08 07:32:00,,0836.5,4.99,0.00,26.0,24.5,00.0,34.8,27.9,22.9,-001.9,0013.49,0009.84,0009.42
2022-10-08 07:33:00,,0836.5,4.99,0.00,26.0,24.4,00.0,34.8,27.9,22.9,-001.7,0013.46,0009.83,0009.42
2022-10-08 07:34:00,,0836.5,5.01,0.00,26.0,24.4,00.0,34.8,27.9,22.9,-001.5,0013.40,0009.82,0009.43
2022-10-08 07:35:00,,0836.5,4.99,0.00,26.0,24.4,00.0,34.8,27.9,22.9,-001.7,0013.34,0009.80,0009.42
2022-10-08 07:36:00,,0836.5,5.00,0.00,26.0,24.4,00.0,34.8,27.9,22.9,-001.9,0013.21,0009.77,0009.42
2022-10-08 07:37:00,,0836.5,5.01,0.00,26.0,24.4,00.0,34.8,27.9,22.9,-002.1,0013.26,0009.74,0009.41
2022-10-08 07:38:00,,0836.5,4.99,0.00,26.0,24.4,00.0,34.8,27.8,22.9,-002.2,0013.62,0009.78,0009.40
2022-10-08 07:39:00,,0836.5,5.00,0.00,26.0,24.4,00.0,34.8,27.8,22.9,-002.0,0013.66,0009.81,0009.42
2022-10-08 07:40:00,,0836.5,5.00,0.00,26.0,24.4,00.0,34.8,27.8,22.9,-002.0,0013.61,0009.79,0009.41
2022-10-08 07:41:00,,0836.5,4.99,0.00,26.0,24.4,00.0,34.8,27.8,22.9,-001.9,0013.55,0009.78,0009.41
2022-10-08 07:42:00,,0836.5,5.00,0.00,25.9,24.4,00.0,34.7,27.8,22.9,-001.9,0013.56,0009.77,0009.40
2022-10-08 07:43:00,,0836.5,5.00,0.00,25.9,24.4,00.0,34.7,27.8,22.9,-002.0,0013.66,0009.80,0009.41
2022-10-08 07:44:00,,0836.5,5.00,0.00,25.9,24.4,00.0,34.7,27.8,23.8,-002.2,0013.65,0009.79,0009.40
2022-10-08 07:45:00,,0836.5,4.99,0.00,25.9,24.4,00.0,34.7,27.8,25.4,-002.2,0013.69,0009.80,0009.40
2022-10-08 07:46:00,,0836.5,5.01,0.00,25.9,24.4,00.0,34.7,27.8,24.0,-002.1,0013.91,0009.84,0009.39
2022-10-08 07:47:00,,0836.6,5.00,0.00,25.9,24.4,00.0,34.7,27.8,23.3,-002.1,0014.11,0009.86,0009.37
2022-10-08 07:48:00,,0836.6,5.00,0.00,25.9,24.4,00.0,34.7,27.8,23.2,-001.9,0014.04,0009.83,0009.34
2022-10-08 07:49:00,,0836.6,4.99,0.00,25.9,24.4,00.0,34.7,27.8,23.2,-001.8,0013.76,0009.78,0009.32
2022-10-08 07:50:00,,0836.6,5.01,0.00,25.9,24.4,00.0,34.7,27.8,23.1,-001.9,0013.69,0009.73,0009.28
2022-10-08 07:51:00,,0836.6,5.00,0.00,25.9,24.4,00.0,34.7,27.8,23.1,-002.0,0013.97,0009.72,0009.27
2022-10-08 07:52:00,,0836.6,5.00,0.00,25.9,24.3,00.0,34.7,27.7,23.1,-001.9,0014.06,0009.72,0009.27
2022-10-08 07:53:00,,0836.7,5.00,0.00,25.9,24.3,00.0,34.7,27.7,23.1,-001.9,0014.00,0009.69,0009.26
2022-10-08 07:54:00,,0836.6,5.00,0.00,25.9,24.3,00.0,34.7,27.7,23.1,-001.8,0013.88,0009.66,0009.25
2022-10-08 07:55:00,,0836.7,5.00,0.00,25.9,24.3,00.0,34.7,27.8,23.1,-001.7,0014.06,0009.74,0009.32
2022-10-08 07:56:00,,0836.7,5.00,0.00,25.9,24.3,00.0,34.7,27.8,23.1,-001.7,0014.88,0009.80,0009.39
2022-10-08 07:57:00,,0836.6,5.01,0.00,25.9,24.3,00.0,34.7,27.8,23.1,-001.7,0015.03,0009.89,0009.47
2022-10-08 07:58:00,,0836.6,4.99,0.00,25.9,24.3,00.0,34.7,27.7,23.1,-001.7,0014.95,0009.96,0009.54
2022-10-08 07:59:00,,0836.7,4.99,0.00,25.8,24.3,00.0,34.7,27.7,23.1,-001.6,0014.92,0010.06,0009.64
